| time (UTC) | temp F | wind direction | speed knots | gust knots | rain 1hr in | rain 24hr in | rain mn in | humidity % | barometer mb |
| 20260510175803 | 59 | 344 | 5.2 | 10.4 | 0.00 | 0.00 | 0.00 | 37 | 1019.5 |
| 20260510175306 | 59 | 324 | 5.2 | 11.3 | 0.00 | 0.00 | 0.00 | 37 | 1019.4 |
| 20260510174303 | 58 | 278 | 1.7 | 10.4 | 0.00 | 0.00 | 0.00 | 37 | 1019.6 |
| 20260510173804 | 58 | 313 | 7.0 | 13.9 | 0.00 | 0.00 | 0.00 | 37 | 1019.6 |
| 20260510173303 | 58 | 336 | 5.2 | 10.4 | 0.00 | 0.00 | 0.00 | 37 | 1019.5 |
| 20260510172804 | 58 | 331 | 5.2 | 12.2 | 0.00 | 0.00 | 0.00 | 37 | 1019.4 |
| 20260510171303 | 57 | 71 | 4.3 | 11.3 | 0.00 | 0.00 | 0.00 | 37 | 1019.5 |
| 20260510170803 | 58 | 351 | 7.0 | 13.0 | 0.00 | 0.00 | 0.00 | 37 | 1019.5 |
| 20260510170303 | 58 | 2 | 4.3 | 10.4 | 0.00 | 0.00 | 0.00 | 37 | 1019.5 |
| 20260510165804 | 57 | 328 | 5.2 | 12.2 | 0.00 | 0.00 | 0.00 | 39 | 1019.4 |
| 20260510164804 | 57 | 334 | 4.3 | 11.3 | 0.00 | 0.00 | 0.00 | 39 | 1019.7 |
| 20260510163803 | 57 | 355 | 6.1 | 10.4 | 0.00 | 0.00 | 0.00 | 39 | 1019.7 |
| 20260510162804 | 57 | 329 | 7.8 | 11.3 | 0.00 | 0.00 | 0.00 | 39 | 1019.7 |
| 20260510162306 | 57 | 327 | 4.3 | 10.4 | 0.00 | 0.00 | 0.00 | 39 | 1019.7 |
| 20260510161804 | 57 | 354 | 2.6 | 7.8 | 0.00 | 0.00 | 0.00 | 39 | 1019.7 |
| 20260510161303 | 57 | 342 | 2.6 | 6.1 | 0.00 | 0.00 | 0.00 | 39 | 1019.7 |
| 20260510160803 | 56 | 323 | 2.6 | 8.7 | 0.00 | 0.00 | 0.00 | 39 | 1019.6 |
| 20260510160303 | 55 | 354 | 2.6 | 7.8 | 0.00 | 0.00 | 0.00 | 39 | 1019.6 |
| 20260510155305 | 55 | 294 | 5.2 | 10.4 | 0.00 | 0.00 | 0.00 | 39 | 1019.5 |
| 20260510153803 | 55 | 337 | 1.7 | 7.0 | 0.00 | 0.00 | 0.00 | 39 | 1019.5 |
| 20260510153303 | 54 | 51 | 5.2 | 12.2 | 0.00 | 0.00 | 0.00 | 39 | 1019.5 |
| 20260510152307 | 54 | 7 | 4.3 | 7.8 | 0.00 | 0.00 | 0.00 | 39 | 1019.5 |
| 20260510151804 | 54 | 50 | 3.5 | 10.4 | 0.00 | 0.00 | 0.00 | 39 | 1019.5 |
| 20260510151303 | 54 | 119 | 4.3 | 10.4 | 0.00 | 0.00 | 0.00 | 39 | 1019.4 |
| 20260510150804 | 53 | 291 | 3.5 | 8.7 | 0.00 | 0.00 | 0.00 | 39 | 1019.4 |
| 20260510150304 | 52 | 340 | 3.5 | 7.0 | 0.00 | 0.00 | 0.00 | 39 | 1019.4 |
| 20260510145803 | 53 | 356 | 5.2 | 10.4 | 0.00 | 0.00 | 0.00 | 43 | 1019.4 |
| 20260510145306 | 53 | 350 | 2.6 | 10.4 | 0.00 | 0.00 | 0.00 | 43 | 1019.4 |
| 20260510144803 | 53 | 348 | 4.3 | 10.4 | 0.00 | 0.00 | 0.00 | 43 | 1019.4 |
| 20260510144303 | 53 | 357 | 7.0 | 10.4 | 0.00 | 0.00 | 0.00 | 43 | 1019.5 |
| 20260510143803 | 52 | 348 | 4.3 | 8.7 | 0.00 | 0.00 | 0.00 | 43 | 1019.5 |
| 20260510143303 | 52 | 304 | 5.2 | 10.4 | 0.00 | 0.00 | 0.00 | 43 | 1019.5 |
| 20260510142803 | 52 | 3 | 4.3 | 8.7 | 0.00 | 0.00 | 0.00 | 43 | 1019.5 |
| 20260510141804 | 51 | 355 | 5.2 | 8.7 | 0.00 | 0.00 | 0.00 | 43 | 1019.5 |
| 20260510141303 | 51 | 322 | 4.3 | 8.7 | 0.00 | 0.00 | 0.00 | 43 | 1019.4 |
| 20260510140803 | 50 | 0 | 2.6 | 7.0 | 0.00 | 0.00 | 0.00 | 43 | 1019.4 |
| 20260510140304 | 49 | 0 | 3.5 | 7.0 | 0.00 | 0.00 | 0.00 | 45 | 1019.4 |
| 20260510135306 | 50 | 0 | 5.2 | 10.4 | 0.00 | 0.00 | 0.00 | 53 | 1019.2 |
| 20260510134803 | 50 | 0 | 4.3 | 10.4 | 0.00 | 0.00 | 0.00 | 53 | 1019.2 |
| 20260510134304 | 49 | 0 | 6.1 | 8.7 | 0.00 | 0.00 | 0.00 | 53 | 1019.2 |
| 20260510132804 | 46 | 0 | 2.6 | 7.0 | 0.00 | 0.00 | 0.00 | 53 | 1019.2 |
| 20260510132306 | 45 | 0 | 1.7 | 2.6 | 0.00 | 0.00 | 0.00 | 53 | 1019.2 |
| 20260510130804 | 42 | 222 | 0.0 | 1.7 | 0.00 | 0.00 | 0.00 | 53 | 1019.0 |
| 20260510130304 | 41 | 219 | 0.9 | 2.6 | 0.00 | 0.00 | 0.00 | 56 | 1019.0 |
| 20260510125803 | 41 | 242 | 0.9 | 2.6 | 0.00 | 0.00 | 0.00 | 68 | 1018.9 |
| 20260510125306 | 40 | 235 | 2.6 | 5.2 | 0.00 | 0.00 | 0.00 | 68 | 1018.9 |
| 20260510124803 | 40 | 249 | 1.7 | 2.6 | 0.00 | 0.00 | 0.00 | 68 | 1018.9 |
| 20260510124304 | 39 | 272 | 0.9 | 2.6 | 0.00 | 0.00 | 0.00 | 68 | 1018.9 |
| 20260510123803 | 38 | 243 | 0.9 | 2.6 | 0.00 | 0.00 | 0.00 | 68 | 1018.7 |
| 20260510123304 | 38 | 254 | 0.9 | 1.7 | 0.00 | 0.00 | 0.00 | 68 | 1018.6 |
| 20260510122804 | 37 | 0 | 0.9 | 1.7 | 0.00 | 0.00 | 0.00 | 68 | 1018.5 |
| 20260510122306 | 36 | 0 | 0.0 | 0.9 | 0.00 | 0.00 | 0.00 | 68 | 1018.5 |
| 20260510121804 | 35 | 0 | 0.0 | 0.9 | 0.00 | 0.00 | 0.00 | 68 | 1018.4 |
| 20260510121304 | 35 | 0 | 0.0 | 0.0 | 0.00 | 0.00 | 0.00 | 68 | 1018.4 |
| 20260510120803 | 34 | 0 | 0.0 | 0.9 | 0.00 | 0.00 | 0.00 | 68 | 1018.3 |
| 20260510120303 | 34 | 0 | 0.0 | 0.0 | 0.00 | 0.00 | 0.00 | 68 | 1018.2 |
| 20260510114804 | 32 | 348 | 0.0 | 0.0 | 0.00 | 0.00 | 0.00 | 76 | 1018.2 |
| 20260510114303 | 32 | 317 | 0.0 | 0.0 | 0.00 | 0.00 | 0.00 | 76 | 1018.0 |
| 20260510113803 | 31 | 316 | 0.0 | 0.0 | 0.00 | 0.00 | 0.00 | 76 | 1017.9 |
| 20260510113303 | 31 | 316 | 0.0 | 0.0 | 0.00 | 0.00 | 0.00 | 76 | 1017.9 |
| 20260510112803 | 30 | 315 | 0.0 | 0.0 | 0.00 | 0.00 | 0.00 | 76 | 1018.0 |
| 20260510112306 | 30 | 316 | 0.0 | 0.0 | 0.00 | 0.00 | 0.00 | 76 | 1018.0 |
| 20260510111803 | 30 | 316 | 0.0 | 0.0 | 0.00 | 0.00 | 0.00 | 76 | 1017.9 |
| 20260510111303 | 30 | 316 | 0.0 | 0.0 | 0.00 | 0.00 | 0.00 | 76 | 1017.9 |
| 20260510110803 | 31 | 316 | 0.0 | 0.0 | 0.00 | 0.00 | 0.00 | 76 | 1017.9 |
| 20260510110303 | 31 | 316 | 0.0 | 0.0 | 0.00 | 0.00 | 0.00 | 76 | 1017.9 |
| 20260510105803 | 31 | 316 | 0.0 | 0.0 | 0.00 | 0.00 | 0.00 | 73 | 1017.6 |
| 20260510105306 | 31 | 316 | 0.0 | 0.0 | 0.00 | 0.00 | 0.00 | 73 | 1017.5 |
| 20260510104803 | 31 | 316 | 0.0 | 0.0 | 0.00 | 0.00 | 0.00 | 73 | 1017.5 |
| 20260510104304 | 30 | 316 | 0.0 | 0.0 | 0.00 | 0.00 | 0.00 | 73 | 1017.5 |
| 20260510103803 | 30 | 316 | 0.0 | 0.0 | 0.00 | 0.00 | 0.00 | 73 | 1017.5 |
| 20260510103304 | 31 | 316 | 0.0 | 0.0 | 0.00 | 0.00 | 0.00 | 73 | 1017.5 |
| 20260510102804 | 31 | 316 | 0.0 | 0.9 | 0.00 | 0.00 | 0.00 | 73 | 1017.4 |
| 20260510102306 | 31 | 316 | 0.0 | 0.9 | 0.00 | 0.00 | 0.00 | 73 | 1017.4 |
| 20260510101804 | 31 | 316 | 0.0 | 0.0 | 0.00 | 0.00 | 0.00 | 73 | 1017.3 |
| 20260510101304 | 30 | 316 | 0.0 | 0.0 | 0.00 | 0.00 | 0.00 | 73 | 1017.2 |
| 20260510100804 | 31 | 316 | 0.0 | 0.0 | 0.00 | 0.00 | 0.00 | 73 | 1017.2 |
| 20260510100304 | 31 | 316 | 0.0 | 0.0 | 0.00 | 0.00 | 0.00 | 71 | 1017.1 |
| 20260510095803 | 31 | 316 | 0.0 | 0.0 | 0.00 | 0.00 | 0.00 | 63 | 1016.9 |
| 20260510095305 | 31 | 316 | 0.0 | 0.0 | 0.00 | 0.00 | 0.00 | 63 | 1016.8 |
| 20260510094803 | 31 | 316 | 0.0 | 0.0 | 0.00 | 0.00 | 0.00 | 63 | 1016.8 |
| 20260510094303 | 31 | 316 | 0.0 | 0.0 | 0.00 | 0.00 | 0.00 | 63 | 1016.8 |
| 20260510093803 | 31 | 316 | 0.0 | 0.0 | 0.00 | 0.00 | 0.00 | 63 | 1016.6 |
| 20260510092804 | 31 | 0 | 0.0 | 0.0 | 0.00 | 0.00 | 0.00 | 63 | 1016.6 |
| 20260510091304 | 31 | 0 | 0.0 | 0.0 | 0.00 | 0.00 | 0.00 | 63 | 1016.6 |
| 20260510090303 | 32 | 0 | 0.0 | 0.0 | 0.00 | 0.00 | 0.00 | 63 | 1016.5 |
| 20260510084804 | 32 | 0 | 0.0 | 0.0 | 0.00 | 0.00 | 0.00 | 65 | 1016.2 |
| 20260510084303 | 32 | 320 | 0.0 | 0.0 | 0.00 | 0.00 | 0.00 | 65 | 1016.2 |
| 20260510083803 | 33 | 314 | 0.0 | 0.0 | 0.00 | 0.00 | 0.00 | 65 | 1016.2 |
| 20260510083304 | 33 | 314 | 0.0 | 0.0 | 0.00 | 0.00 | 0.00 | 65 | 1016.2 |
| 20260510082804 | 33 | 314 | 0.0 | 0.0 | 0.00 | 0.00 | 0.00 | 65 | 1016.0 |
| 20260510080803 | 34 | 314 | 0.0 | 0.0 | 0.00 | 0.00 | 0.00 | 65 | 1015.8 |
| 20260510080304 | 34 | 314 | 0.0 | 0.0 | 0.00 | 0.00 | 0.00 | 63 | 1015.7 |
| 20260510075804 | 34 | 314 | 0.0 | 0.0 | 0.00 | 0.00 | 0.00 | 54 | 1015.6 |
| 20260510075306 | 34 | 314 | 0.0 | 0.0 | 0.00 | 0.00 | 0.00 | 54 | 1015.6 |
| 20260510074804 | 34 | 314 | 0.0 | 0.0 | 0.00 | 0.00 | 0.00 | 54 | 1015.7 |
| 20260510074304 | 34 | 314 | 0.0 | 0.0 | 0.00 | 0.00 | 0.00 | 54 | 1015.6 |
| 20260510073804 | 35 | 314 | 0.0 | 0.0 | 0.00 | 0.00 | 0.00 | 54 | 1015.6 |
| 20260510073303 | 35 | 314 | 0.0 | 0.0 | 0.00 | 0.00 | 0.00 | 54 | 1015.5 |
| 20260510072803 | 35 | 315 | 0.0 | 0.0 | 0.00 | 0.00 | 0.00 | 54 | 1015.5 |
| 20260510071804 | 35 | 315 | 0.0 | 0.0 | 0.00 | 0.00 | 0.00 | 54 | 1015.6 |
| 20260510071304 | 35 | 315 | 0.0 | 0.0 | 0.00 | 0.00 | 0.00 | 54 | 1015.5 |
| 20260510070804 | 35 | 315 | 0.0 | 0.0 | 0.00 | 0.00 | 0.00 | 54 | 1015.4 |
| 20260510070303 | 36 | 314 | 0.0 | 0.0 | 0.00 | 0.00 | 0.00 | 54 | 1015.4 |
| 20260510065306 | 36 | 314 | 0.0 | 0.0 | 0.00 | 0.00 | 0.00 | 48 | 1015.4 |
| 20260510064803 | 37 | 314 | 0.0 | 0.0 | 0.00 | 0.00 | 0.00 | 48 | 1015.3 |
| 20260510064303 | 37 | 314 | 0.0 | 0.0 | 0.00 | 0.00 | 0.00 | 48 | 1015.4 |
| 20260510062804 | 37 | 340 | 0.0 | 0.0 | 0.00 | 0.00 | 0.00 | 48 | 1015.3 |
| 20260510062306 | 38 | 0 | 0.0 | 0.0 | 0.00 | 0.00 | 0.00 | 48 | 1015.3 |
| 20260510061804 | 38 | 0 | 0.0 | 0.0 | 0.00 | 0.00 | 0.00 | 48 | 1015.2 |
| 20260510061304 | 38 | 0 | 0.0 | 0.0 | 0.00 | 0.00 | 0.00 | 48 | 1015.3 |
| 20260510060804 | 38 | 0 | 0.0 | 0.0 | 0.00 | 0.00 | 0.00 | 48 | 1015.3 |
| 20260510060303 | 39 | 0 | 0.0 | 1.7 | 0.00 | 0.00 | 0.00 | 48 | 1015.2 |
| 20260510055803 | 39 | 0 | 0.9 | 1.7 | 0.00 | 0.00 | 0.00 | 45 | 1015.2 |
| 20260510055306 | 39 | 0 | 0.0 | 0.9 | 0.00 | 0.00 | 0.00 | 45 | 1015.2 |
| 20260510054803 | 39 | 0 | 0.9 | 2.6 | 0.00 | 0.00 | 0.00 | 45 | 1015.1 |
| 20260510054303 | 39 | 0 | 0.0 | 0.9 | 0.00 | 0.00 | 0.00 | 45 | 1015.0 |
| 20260510053803 | 39 | 0 | 0.0 | 2.6 | 0.00 | 0.00 | 0.00 | 45 | 1015.0 |
| 20260510053304 | 39 | 0 | 0.9 | 2.6 | 0.00 | 0.00 | 0.00 | 45 | 1014.9 |
| 20260510052803 | 39 | 0 | 0.9 | 2.6 | 0.00 | 0.00 | 0.00 | 45 | 1014.9 |
| 20260510052306 | 39 | 0 | 0.9 | 2.6 | 0.00 | 0.00 | 0.00 | 45 | 1014.8 |
| 20260510051804 | 39 | 0 | 0.9 | 1.7 | 0.00 | 0.00 | 0.00 | 45 | 1014.8 |
| 20260510051304 | 39 | 0 | 0.9 | 2.6 | 0.00 | 0.00 | 0.00 | 45 | 1014.8 |
| 20260510050814 | 39 | 0 | 0.9 | 1.7 | 0.00 | 0.00 | 0.00 | 45 | 1014.7 |
| 20260510045803 | 40 | 0 | 0.0 | 0.9 | 0.00 | 0.00 | 0.00 | 41 | 1014.6 |
| 20260510045306 | 41 | 0 | 0.9 | 1.7 | 0.00 | 0.00 | 0.00 | 41 | 1014.6 |
| 20260510044803 | 41 | 0 | 0.0 | 0.9 | 0.00 | 0.00 | 0.00 | 41 | 1014.5 |
| 20260510044304 | 41 | 0 | 0.0 | 1.7 | 0.00 | 0.00 | 0.00 | 41 | 1014.5 |
| 20260510043804 | 41 | 0 | 0.9 | 1.7 | 0.00 | 0.00 | 0.00 | 41 | 1014.4 |
| 20260510043303 | 41 | 0 | 0.0 | 0.9 | 0.00 | 0.00 | 0.00 | 41 | 1014.3 |
| 20260510042306 | 42 | 0 | 0.9 | 1.7 | 0.00 | 0.00 | 0.00 | 41 | 1014.1 |
| 20260510041804 | 42 | 0 | 0.9 | 2.6 | 0.00 | 0.00 | 0.00 | 41 | 1014.0 |
| 20260510041303 | 42 | 0 | 0.9 | 2.6 | 0.00 | 0.00 | 0.00 | 41 | 1013.9 |
| 20260510040803 | 43 | 0 | 0.9 | 1.7 | 0.00 | 0.00 | 0.00 | 41 | 1013.9 |
| 20260510040304 | 43 | 0 | 0.9 | 1.7 | 0.00 | 0.00 | 0.00 | 41 | 1013.8 |
| 20260510035803 | 43 | 0 | 0.9 | 1.7 | 0.00 | 0.00 | 0.00 | 41 | 1013.7 |
| 20260510035306 | 43 | 0 | 0.0 | 1.7 | 0.00 | 0.00 | 0.00 | 41 | 1013.7 |
| 20260510034804 | 43 | 0 | 0.0 | 1.7 | 0.00 | 0.00 | 0.00 | 41 | 1013.6 |
| 20260510034304 | 43 | 0 | 0.9 | 2.6 | 0.00 | 0.00 | 0.00 | 41 | 1013.5 |
| 20260510033804 | 43 | 0 | 0.9 | 2.6 | 0.00 | 0.00 | 0.00 | 41 | 1013.5 |
| 20260510033303 | 43 | 0 | 0.9 | 2.6 | 0.00 | 0.00 | 0.00 | 41 | 1013.5 |
| 20260510032804 | 43 | 0 | 0.9 | 2.6 | 0.00 | 0.00 | 0.00 | 41 | 1013.4 |
| 20260510032306 | 43 | 0 | 0.0 | 1.7 | 0.00 | 0.00 | 0.00 | 41 | 1013.4 |
| 20260510031804 | 43 | 0 | 0.0 | 1.7 | 0.00 | 0.00 | 0.00 | 41 | 1013.4 |
| 20260510031303 | 44 | 0 | 0.0 | 0.9 | 0.00 | 0.00 | 0.00 | 41 | 1013.3 |
| 20260510030804 | 44 | 0 | 0.0 | 0.9 | 0.00 | 0.00 | 0.00 | 41 | 1013.2 |
| 20260510030304 | 44 | 0 | 0.0 | 0.9 | 0.00 | 0.00 | 0.00 | 41 | 1013.1 |
| 20260510025804 | 44 | 0 | 0.0 | 0.0 | 0.00 | 0.00 | 0.00 | 36 | 1013.0 |
| 20260510025306 | 45 | 0 | 0.0 | 0.9 | 0.00 | 0.00 | 0.00 | 36 | 1012.9 |
| 20260510024804 | 45 | 0 | 0.0 | 0.9 | 0.00 | 0.00 | 0.00 | 36 | 1012.9 |
| 20260510024304 | 46 | 0 | 0.0 | 0.9 | 0.00 | 0.00 | 0.00 | 36 | 1012.7 |
| 20260510023804 | 46 | 0 | 0.0 | 0.9 | 0.00 | 0.00 | 0.00 | 36 | 1012.6 |
| 20260510023303 | 46 | 309 | 0.0 | 0.9 | 0.00 | 0.00 | 0.00 | 36 | 1012.5 |
| 20260510022803 | 47 | 309 | 0.0 | 0.0 | 0.00 | 0.00 | 0.00 | 36 | 1012.4 |
| 20260510022306 | 48 | 309 | 0.0 | 0.0 | 0.00 | 0.00 | 0.00 | 36 | 1012.3 |
| 20260510021803 | 48 | 305 | 0.0 | 0.9 | 0.00 | 0.00 | 0.00 | 36 | 1012.2 |
| 20260510021303 | 48 | 304 | 0.9 | 2.6 | 0.00 | 0.00 | 0.00 | 36 | 1012.0 |
| 20260510020804 | 49 | 304 | 0.0 | 2.6 | 0.00 | 0.00 | 0.00 | 36 | 1012.0 |
| 20260510020303 | 50 | 329 | 0.9 | 2.6 | 0.00 | 0.00 | 0.00 | 36 | 1011.8 |
| 20260510015803 | 51 | 321 | 1.7 | 2.6 | 0.00 | 0.00 | 0.00 | 29 | 1011.8 |
| 20260510015306 | 51 | 302 | 1.7 | 4.3 | 0.00 | 0.00 | 0.00 | 29 | 1011.7 |
| 20260510014804 | 52 | 319 | 1.7 | 4.3 | 0.00 | 0.00 | 0.00 | 29 | 1011.6 |
| 20260510014304 | 52 | 319 | 1.7 | 7.0 | 0.00 | 0.00 | 0.00 | 29 | 1011.6 |
| 20260510013803 | 53 | 321 | 2.6 | 7.8 | 0.00 | 0.00 | 0.00 | 29 | 1011.4 |
| 20260510013303 | 53 | 310 | 3.5 | 6.1 | 0.00 | 0.00 | 0.00 | 29 | 1011.4 |
| 20260510012804 | 54 | 343 | 2.6 | 5.2 | 0.00 | 0.00 | 0.00 | 29 | 1011.3 |
| 20260510012306 | 54 | 331 | 3.5 | 7.8 | 0.00 | 0.00 | 0.00 | 29 | 1011.2 |
| 20260510011303 | 55 | 314 | 2.6 | 7.0 | 0.00 | 0.00 | 0.00 | 29 | 1010.9 |
| 20260510010804 | 55 | 333 | 4.3 | 7.0 | 0.00 | 0.00 | 0.00 | 29 | 1010.8 |
| 20260510010303 | 55 | 312 | 4.3 | 10.4 | 0.00 | 0.00 | 0.00 | 29 | 1010.7 |
| 20260510005804 | 55 | 330 | 4.3 | 10.4 | 0.00 | 0.00 | 0.00 | 27 | 1010.6 |
| 20260510004804 | 56 | 343 | 6.1 | 10.4 | 0.00 | 0.00 | 0.00 | 27 | 1010.4 |
| 20260510003304 | 57 | 348 | 7.0 | 13.9 | 0.00 | 0.00 | 0.00 | 27 | 1010.3 |
| 20260510002804 | 57 | 346 | 6.1 | 11.3 | 0.00 | 0.00 | 0.00 | 27 | 1010.2 |
| 20260510002306 | 57 | 352 | 6.1 | 10.4 | 0.00 | 0.00 | 0.00 | 27 | 1010.1 |
| 20260510001804 | 57 | 352 | 6.1 | 13.0 | 0.00 | 0.00 | 0.00 | 27 | 1010.1 |
| 20260510000804 | 58 | 337 | 6.1 | 10.4 | 0.00 | 0.00 | 0.00 | 27 | 1009.9 |
| 20260510000304 | 58 | 334 | 5.2 | 11.3 | 0.00 | 0.00 | 0.00 | 27 | 1009.9 |
| 20260509235804 | 58 | 300 | 4.3 | 12.2 | 0.00 | 0.00 | 0.00 | 27 | 1009.8 |
| 20260509235306 | 58 | 327 | 3.5 | 11.3 | 0.00 | 0.00 | 0.00 | 27 | 1009.8 |
| 20260509234803 | 58 | 337 | 7.0 | 17.4 | 0.00 | 0.00 | 0.00 | 27 | 1009.7 |
| 20260509234303 | 59 | 329 | 6.1 | 13.9 | 0.00 | 0.00 | 0.00 | 27 | 1009.7 |
| 20260509233804 | 59 | 305 | 4.3 | 11.3 | 0.00 | 0.00 | 0.00 | 27 | 1009.6 |
| 20260509233303 | 59 | 326 | 6.1 | 13.0 | 0.00 | 0.00 | 0.00 | 27 | 1009.6 |
| 20260509232804 | 59 | 336 | 4.3 | 10.4 | 0.00 | 0.00 | 0.00 | 27 | 1009.5 |
| 20260509231803 | 60 | 299 | 5.2 | 10.4 | 0.00 | 0.00 | 0.00 | 27 | 1009.3 |
| 20260509231304 | 60 | 348 | 6.1 | 13.0 | 0.00 | 0.00 | 0.00 | 27 | 1009.2 |
| 20260509230804 | 60 | 316 | 7.8 | 17.4 | 0.00 | 0.00 | 0.00 | 27 | 1009.1 |
| 20260509225306 | 60 | 302 | 6.1 | 18.2 | 0.00 | 0.00 | 0.00 | 27 | 1009.0 |
| 20260509224803 | 60 | 349 | 10.4 | 17.4 | 0.00 | 0.00 | 0.00 | 27 | 1008.9 |
| 20260509224304 | 60 | 348 | 10.4 | 15.6 | 0.00 | 0.00 | 0.00 | 27 | 1008.9 |
| 20260509223803 | 60 | 341 | 8.7 | 17.4 | 0.00 | 0.00 | 0.00 | 27 | 1008.9 |
| 20260509223304 | 60 | 303 | 8.7 | 15.6 | 0.00 | 0.00 | 0.00 | 27 | 1008.8 |
| 20260509222804 | 61 | 316 | 10.4 | 17.4 | 0.00 | 0.00 | 0.00 | 27 | 1008.7 |
| 20260509222306 | 61 | 326 | 6.1 | 13.0 | 0.00 | 0.00 | 0.00 | 27 | 1008.7 |
| 20260509221804 | 61 | 355 | 8.7 | 14.8 | 0.00 | 0.00 | 0.00 | 27 | 1008.7 |
| 20260509221303 | 61 | 320 | 7.0 | 14.8 | 0.00 | 0.00 | 0.00 | 27 | 1008.6 |
| 20260509220803 | 61 | 308 | 6.1 | 13.9 | 0.00 | 0.00 | 0.00 | 27 | 1008.5 |
| 20260509220304 | 61 | 322 | 8.7 | 15.6 | 0.00 | 0.00 | 0.00 | 27 | 1008.4 |
| 20260509215804 | 61 | 327 | 8.7 | 15.6 | 0.00 | 0.00 | 0.00 | 30 | 1008.5 |
| 20260509215306 | 61 | 352 | 10.4 | 17.4 | 0.00 | 0.00 | 0.00 | 30 | 1008.4 |
| 20260509214803 | 61 | 337 | 7.8 | 20.9 | 0.00 | 0.00 | 0.00 | 30 | 1008.4 |
| 20260509213803 | 61 | 304 | 8.7 | 22.6 | 0.00 | 0.00 | 0.00 | 30 | 1008.3 |
| 20260509212804 | 61 | 305 | 6.1 | 13.9 | 0.00 | 0.00 | 0.00 | 30 | 1008.2 |
| 20260509212305 | 61 | 311 | 8.7 | 17.4 | 0.00 | 0.00 | 0.00 | 30 | 1008.2 |
| 20260509211803 | 61 | 344 | 7.8 | 13.9 | 0.00 | 0.00 | 0.00 | 30 | 1008.1 |
| 20260509210803 | 61 | 331 | 10.4 | 17.4 | 0.00 | 0.00 | 0.00 | 30 | 1008.1 |
| 20260509210303 | 61 | 328 | 7.0 | 14.8 | 0.00 | 0.00 | 0.00 | 30 | 1008.1 |
| 20260509205803 | 61 | 279 | 7.0 | 13.0 | 0.00 | 0.00 | 0.00 | 29 | 1008.0 |
| 20260509205307 | 61 | 307 | 8.7 | 13.0 | 0.00 | 0.00 | 0.00 | 29 | 1007.9 |
| 20260509204804 | 61 | 330 | 8.7 | 14.8 | 0.00 | 0.00 | 0.00 | 29 | 1008.0 |
| 20260509204304 | 61 | 314 | 9.6 | 14.8 | 0.00 | 0.00 | 0.00 | 29 | 1008.0 |
| 20260509203804 | 61 | 340 | 8.7 | 15.6 | 0.00 | 0.00 | 0.00 | 29 | 1007.9 |
| 20260509203304 | 61 | 327 | 6.1 | 17.4 | 0.00 | 0.00 | 0.00 | 29 | 1007.8 |
| 20260509202306 | 61 | 317 | 8.7 | 14.8 | 0.00 | 0.00 | 0.00 | 29 | 1007.8 |
| 20260509201803 | 61 | 321 | 12.2 | 20.0 | 0.00 | 0.00 | 0.00 | 29 | 1007.7 |
| 20260509201304 | 61 | 348 | 8.7 | 13.9 | 0.00 | 0.00 | 0.00 | 29 | 1007.5 |
| 20260509200304 | 60 | 310 | 7.0 | 12.2 | 0.00 | 0.00 | 0.00 | 29 | 1007.4 |
| 20260509195802 | 60 | 315 | 10.4 | 18.2 | 0.00 | 0.00 | 0.00 | 33 | 1007.5 |
| 20260509195306 | 61 | 306 | 8.7 | 15.6 | 0.00 | 0.00 | 0.00 | 33 | 1007.5 |
| 20260509194303 | 61 | 334 | 10.4 | 20.0 | 0.00 | 0.00 | 0.00 | 33 | 1007.4 |
| 20260509193303 | 61 | 321 | 10.4 | 19.1 | 0.00 | 0.00 | 0.00 | 33 | 1007.4 |
| 20260509192803 | 61 | 351 | 7.8 | 14.8 | 0.00 | 0.00 | 0.00 | 33 | 1007.3 |
| 20260509192305 | 61 | 296 | 7.0 | 15.6 | 0.00 | 0.00 | 0.00 | 33 | 1007.2 |
| 20260509191802 | 61 | 300 | 10.4 | 17.4 | 0.00 | 0.00 | 0.00 | 33 | 1007.2 |
| 20260509191303 | 61 | 334 | 7.0 | 19.1 | 0.00 | 0.00 | 0.00 | 33 | 1007.1 |
| 20260509190802 | 61 | 334 | 7.0 | 15.6 | 0.00 | 0.00 | 0.00 | 33 | 1007.1 |
| 20260509190302 | 61 | 332 | 9.6 | 17.4 | 0.00 | 0.00 | 0.00 | 33 | 1007.0 |
| 20260509185802 | 61 | 322 | 10.4 | 17.4 | 0.00 | 0.00 | 0.00 | 36 | 1007.0 |
| 20260509185306 | 61 | 332 | 12.2 | 17.4 | 0.00 | 0.00 | 0.00 | 36 | 1006.9 |
| 20260509184802 | 61 | 309 | 11.3 | 20.0 | 0.00 | 0.00 | 0.00 | 36 | 1006.9 |
| 20260509184303 | 61 | 310 | 9.6 | 20.0 | 0.00 | 0.00 | 0.00 | 36 | 1006.9 |
| 20260509183803 | 61 | 320 | 8.7 | 18.2 | 0.00 | 0.00 | 0.00 | 36 | 1006.8 |
| 20260509183302 | 60 | 306 | 8.7 | 17.4 | 0.00 | 0.00 | 0.00 | 36 | 1006.8 |
| 20260509182803 | 61 | 291 | 9.6 | 17.4 | 0.00 | 0.00 | 0.00 | 36 | 1006.7 |
| 20260509181803 | 62 | 289 | 7.8 | 17.4 | 0.00 | 0.00 | 0.00 | 36 | 1006.6 |
| 20260509181302 | 61 | 327 | 11.3 | 18.2 | 0.00 | 0.00 | 0.00 | 36 | 1006.5 |
| 20260509180803 | 60 | 306 | 7.0 | 13.9 | 0.00 | 0.00 | 0.00 | 36 | 1006.4 |